Gustavus, AK

5:39 AM AKDT on April 27, 2017 (GMT -0800)
Gustavus

Weather History for PAGS - March, 2013

Change the Weather History Date:

Monday, March 11, 2013

  Actual Average Record
Temperature  
Mean Temperature 36 °F -  
Max Temperature 39 °F 38 °F 49 °F (1983)
Min Temperature 33 °F 24 °F -2 °F (2003)
Degree Days  
Heating Degree Days 29    
Moisture  
Dew Point 33 °F    
Average Humidity 88    
Maximum Humidity 100    
Minimum Humidity 65    
Precipitation  
Precipitation 0.00 in - - ()
Sea Level Pressure  
Sea Level Pressure 30.12 in    
Wind  
Wind Speed 7 mph (ESE)    
Max Wind Speed 15 mph    
Max Gust Speed 16 mph    
Visibility 10 miles    
Events      
Averages and records for this station are not official NWS values.
T = Trace of Precipitation, MM = Missing Value Source: NWS Daily Summary

Daily Weather History Graph

Daily Weather History Graph

Search for Another Location

Airport or City:

Trip Planner

Search our weather history database for the weather conditions in past years. The results will help you decide how hot, cold, wet, or windy it might be!

Date:

Astronomy

Mar. 11, 2013 Rise Set
Actual Time 7:29 AM AKDT 6:57 PM AKDT
Civil Twilight 6:49 AM AKDT 7:37 PM AKDT
Nautical Twilight 6:03 AM AKDT 8:23 PM AKDT
Astronomical Twilight 5:15 AM AKDT 9:12 PM AKDT
Moon 6:59 AM AKDT (3/11) 7:32 PM AKDT (3/11)
Length of Visible Light 12h 47m
Length of Day
11h 28m
New Moon, 0% of the Moon is Illuminated
Mar 11
New Moon
Mar 19
First Quarter
Mar 27
Full
Apr 2
Last Quarter
Apr 10
New

Hourly Weather History & Observations

Time (AKDT) Temp. Windchill Dew Point Humidity Pressure Visibility Wind Dir Wind Speed Gust Speed Precip Events Conditions
12:16 AM 33.8 °F - 32.0 °F 93% 30.28 in 10.0 mi Calm Calm - N/A   Overcast
12:36 AM 33.8 °F - 32.0 °F 93% 30.28 in 10.0 mi Calm Calm - N/A   Overcast
12:56 AM 35.6 °F 31.7 °F 33.8 °F 93% 30.27 in 10.0 mi SE 4.6 mph - N/A   Mostly Cloudy
1:16 AM 35.6 °F 30.7 °F 33.8 °F 93% 30.26 in 10.0 mi SE 5.8 mph - N/A   Mostly Cloudy
1:36 AM 35.6 °F - 33.8 °F 93% 30.26 in 10.0 mi Calm Calm - N/A   Overcast
1:56 AM 35.6 °F - 33.8 °F 93% 30.25 in 10.0 mi Calm Calm - N/A   Mostly Cloudy
2:16 AM 35.6 °F 31.7 °F 33.8 °F 93% 30.25 in 10.0 mi SE 4.6 mph - N/A   Mostly Cloudy
2:36 AM 35.6 °F 30.7 °F 33.8 °F 93% 30.24 in 10.0 mi SSE 5.8 mph - N/A   Overcast
2:56 AM 37.4 °F 33.8 °F 32.0 °F 81% 30.24 in 10.0 mi SSE 4.6 mph - N/A   Overcast
3:16 AM 37.4 °F 31.4 °F 33.8 °F 87% 30.23 in 10.0 mi SSE 8.1 mph - N/A   Overcast
3:36 AM 37.4 °F 30.8 °F 33.8 °F 87% 30.23 in 10.0 mi SE 9.2 mph 16.1 mph N/A   Overcast
3:56 AM 37.4 °F 29.8 °F 33.8 °F 87% 30.22 in 10.0 mi SE 11.5 mph - N/A   Overcast
4:16 AM 37.4 °F 30.8 °F 32.0 °F 81% 30.22 in 10.0 mi ESE 9.2 mph 16.1 mph N/A   Overcast
4:36 AM 37.4 °F 31.4 °F 32.0 °F 81% 30.21 in 10.0 mi ESE 8.1 mph - N/A   Overcast
4:56 AM 37.4 °F 29.8 °F 32.0 °F 81% 30.20 in 10.0 mi SE 11.5 mph - N/A   Overcast
5:16 AM 37.4 °F 30.3 °F 32.0 °F 81% 30.20 in 10.0 mi SE 10.4 mph - N/A   Mostly Cloudy
5:36 AM 35.6 °F 27.5 °F 33.8 °F 93% 30.19 in 10.0 mi SE 11.5 mph - N/A   Overcast
5:56 AM 35.6 °F 29.2 °F 32.0 °F 87% 30.18 in 10.0 mi SE 8.1 mph - N/A   Overcast
6:16 AM 35.6 °F 29.9 °F 33.8 °F 93% 30.18 in 10.0 mi SE 6.9 mph - N/A   Overcast
6:36 AM 37.4 °F 32.1 °F 33.8 °F 87% 30.17 in 10.0 mi SE 6.9 mph - N/A   Overcast
6:56 AM 37.4 °F 30.3 °F 33.8 °F 87% 30.17 in 10.0 mi SE 10.4 mph - N/A   Overcast
7:16 AM 37.4 °F 31.4 °F 33.8 °F 87% 30.16 in 10.0 mi SE 8.1 mph - N/A   Overcast
7:36 AM 37.4 °F 30.8 °F 33.8 °F 87% 30.16 in 10.0 mi ESE 9.2 mph - N/A   Overcast
7:56 AM 37.4 °F 31.4 °F 32.0 °F 81% 30.15 in 10.0 mi ESE 8.1 mph - N/A   Overcast
8:16 AM 37.4 °F 32.8 °F 33.8 °F 87% 30.15 in 10.0 mi SE 5.8 mph - N/A   Overcast
8:36 AM 37.4 °F 30.8 °F 32.0 °F 81% 30.14 in 10.0 mi SE 9.2 mph - N/A   Overcast
8:56 AM 37.4 °F 31.4 °F 30.2 °F 75% 30.14 in 10.0 mi SE 8.1 mph - N/A   Overcast
9:16 AM 37.4 °F 31.4 °F 32.0 °F 81% 30.14 in 10.0 mi SSE 8.1 mph - N/A   Overcast
9:36 AM 37.4 °F 29.8 °F 33.8 °F 87% 30.14 in 10.0 mi ESE 11.5 mph - N/A   Overcast
9:56 AM 37.4 °F 30.8 °F 33.8 °F 87% 30.14 in 10.0 mi SE 9.2 mph - N/A   Overcast
10:16 AM 37.4 °F 30.8 °F 33.8 °F 87% 30.14 in 10.0 mi ESE 9.2 mph - N/A   Overcast
10:36 AM 37.4 °F 28.9 °F 33.8 °F 87% 30.14 in 10.0 mi SE 13.8 mph - N/A   Overcast
10:56 AM 37.4 °F 29.8 °F 33.8 °F 87% 30.14 in 10.0 mi SE 11.5 mph - N/A   Overcast
11:16 AM 37.4 °F 29.8 °F 33.8 °F 87% 30.14 in 10.0 mi ESE 11.5 mph - N/A   Mostly Cloudy
11:36 AM 37.4 °F 30.8 °F 33.8 °F 87% 30.13 in 10.0 mi SE 9.2 mph - N/A   Overcast
11:56 AM 37.4 °F 31.4 °F 33.8 °F 87% 30.12 in 10.0 mi SE 8.1 mph - N/A   Overcast
12:16 PM 37.4 °F 30.8 °F 33.8 °F 87% 30.12 in 10.0 mi SE 9.2 mph - N/A   Overcast
12:36 PM 39.2 °F 33.0 °F 33.8 °F 81% 30.12 in 10.0 mi SE 9.2 mph - N/A   Overcast
12:56 PM 39.2 °F 31.6 °F 33.8 °F 81% 30.11 in 10.0 mi SE 12.7 mph - N/A   Overcast
1:16 PM 39.2 °F 31.6 °F 33.8 °F 81% 30.11 in 10.0 mi SE 12.7 mph - N/A   Overcast
1:36 PM 39.2 °F 31.2 °F 33.8 °F 81% 30.10 in 10.0 mi SE 13.8 mph - N/A   Mostly Cloudy
1:56 PM 39.2 °F 30.8 °F 33.8 °F 81% 30.10 in 10.0 mi SE 15.0 mph - N/A   Overcast
2:16 PM - - - N/A% 30.09 in 10.0 mi SE 13.8 mph - N/A   Overcast
2:36 PM - - - N/A% 30.08 in 10.0 mi SSE 12.7 mph - N/A   Overcast
2:56 PM - - - N/A% 30.08 in 10.0 mi SSE 9.2 mph - N/A   Overcast
3:16 PM - - - N/A% 30.07 in 10.0 mi SE 10.4 mph - N/A   Overcast
3:36 PM - - - N/A% 30.07 in 10.0 mi SE 15.0 mph - N/A   Overcast
3:56 PM - - - N/A% 30.07 in 10.0 mi SSE 9.2 mph - N/A   Overcast
4:16 PM - - - N/A% 30.06 in 10.0 mi SSE 12.7 mph - N/A   Overcast
4:36 PM 39.2 °F 32.0 °F 28.4 °F 65% 30.06 in 10.0 mi SSE 11.5 mph - N/A   Overcast
4:56 PM 37.4 °F 30.3 °F 30.2 °F 75% 30.06 in 10.0 mi SSE 10.4 mph - N/A   Overcast
5:16 PM 37.4 °F 32.1 °F 33.8 °F 87% 30.06 in 10.0 mi SE 6.9 mph - N/A   Mostly Cloudy
5:36 PM 35.6 °F 31.7 °F 32.0 °F 87% 30.06 in 10.0 mi South 4.6 mph - N/A   Overcast
5:56 PM 35.6 °F 30.7 °F 33.8 °F 93% 30.05 in 3.0 mi East 5.8 mph - N/A   Overcast
6:16 PM 35.6 °F - 33.8 °F 93% 30.04 in 10.0 mi Calm Calm - N/A   Mostly Cloudy
6:36 PM 35.6 °F 30.7 °F 33.8 °F 93% 30.04 in 10.0 mi North 5.8 mph - N/A   Mostly Cloudy
6:56 PM 35.6 °F 31.7 °F 33.8 °F 93% 30.03 in 10.0 mi NNW 4.6 mph - N/A   Overcast
7:16 PM 35.6 °F 31.7 °F 33.8 °F 93% 30.03 in 10.0 mi NNE 4.6 mph - N/A   Mostly Cloudy
7:36 PM 35.6 °F 30.7 °F 32.0 °F 87% 30.03 in 9.0 mi North 5.8 mph - N/A   Mostly Cloudy
7:56 PM 35.6 °F 30.7 °F 33.8 °F 93% 30.02 in 10.0 mi North 5.8 mph - N/A   Overcast
8:16 PM 33.8 °F 27.7 °F 33.8 °F 100% 30.02 in 10.0 mi NNW 6.9 mph - N/A   Mostly Cloudy
8:36 PM 33.8 °F 28.6 °F 32.0 °F 93% 30.01 in 10.0 mi NNW 5.8 mph - N/A   Mostly Cloudy
8:56 PM 33.8 °F 27.7 °F 32.0 °F 93% 30.01 in 10.0 mi NW 6.9 mph - N/A   Mostly Cloudy
9:16 PM 33.8 °F 27.7 °F 33.8 °F 100% 30.01 in 10.0 mi NNW 6.9 mph - N/A   Overcast
9:36 PM 33.8 °F 27.0 °F 33.8 °F 100% 30.01 in 10.0 mi NNW 8.1 mph - N/A   Overcast
10:16 PM 33.8 °F 26.4 °F 33.8 °F 100% 30.00 in 10.0 mi NNW 9.2 mph - N/A   Overcast
10:36 PM 33.8 °F 28.6 °F 33.8 °F 100% 30.01 in 10.0 mi NNW 5.8 mph - N/A   Overcast
10:56 PM 33.8 °F 27.0 °F 33.8 °F 100% 30.01 in 10.0 mi NNW 8.1 mph - N/A   Overcast
11:16 PM 33.8 °F 30.8 °F 33.8 °F 100% 30.01 in 8.0 mi NNE 3.5 mph - N/A   Overcast
11:36 PM 33.8 °F 30.8 °F 32.0 °F 93% 30.01 in 2.0 mi NNW 3.5 mph - N/A   Overcast
11:56 PM 33.8 °F 30.8 °F 33.8 °F 100% 30.00 in 8.0 mi NW 3.5 mph - N/A   Overcast